FW5669 Weather Reports


time (UTC)temp
C
wind
direction
speed
KPH
gust
KPH
rain 1hr
cm
rain 24hr
cm
rain mn
cm
humidity
%
barometer
mb
20260506211501 16 224 0.0 4.8 0.00 0.00 0.00 77 1021.5
20260506210005 16 231 1.6 3.2 0.00 0.00 0.00 78 1021.7
20260506204601 16 218 0.0 3.2 0.00 0.00 0.00 79 1021.8
20260506203001 16 273 0.0 3.2 0.00 0.00 0.00 80 1021.8
20260506201600 16 243 0.0 3.2 0.00 0.00 0.00 80 1022.0
20260506201502 16 243 0.0 3.2 0.00 0.00 0.00 80 1021.9
20260506200107 16 283 0.0 3.2 0.00 0.00 0.00 81 1022.0
20260506194607 16 163 0.0 3.2 0.00 0.00 0.00 82 1022.2
20260506193101 16 177 0.0 0.0 0.00 0.00 0.00 81 1022.3
20260506191609 15 261 0.0 0.0 0.00 0.00 0.00 82 1022.6
20260506190059 15 224 0.0 0.0 0.00 0.00 0.00 84 1022.7
20260506190002 15 224 0.0 0.0 0.00 0.00 0.00 84 1022.7
20260506184601 15 211 0.0 0.0 0.00 0.00 0.00 83 1022.8
20260506183005 15 235 0.0 0.0 0.00 0.00 0.00 82 1022.7
20260506181502 15 127 0.0 0.0 0.00 0.00 0.00 82 1022.7
20260506180001 15 201 0.0 0.0 0.00 0.00 0.00 83 1022.7
20260506174600 15 28 0.0 0.0 0.00 0.00 0.00 84 1022.6
20260506173137 15 189 0.0 0.0 0.00 0.00 0.00 85 1022.6
20260506171559 15 208 0.0 0.0 0.00 0.00 0.00 84 1022.6
20260506170100 15 259 0.0 0.0 0.00 0.00 0.00 83 1022.6
20260506170002 15 259 0.0 0.0 0.00 0.00 0.00 84 1022.6
20260506164601 15 209 0.0 0.0 0.00 0.00 0.00 85 1022.7
20260506163005 14 235 0.0 0.0 0.00 0.00 0.00 86 1022.6
20260506161601 14 204 0.0 0.0 0.00 0.00 0.00 86 1022.5
20260506161502 14 204 0.0 0.0 0.00 0.00 0.00 86 1022.5
20260506160002 13 180 0.0 0.0 0.00 0.00 0.00 88 1022.4
20260506154559 13 160 0.0 0.0 0.00 0.00 0.00 91 1022.5
20260506153059 13 142 0.0 0.0 0.00 0.00 0.00 91 1022.4
20260506151600 13 122 0.0 0.0 0.00 0.00 0.00 92 1022.4
20260506150100 12 122 0.0 0.0 0.00 0.00 0.00 93 1022.5
20260506150002 12 122 0.0 0.0 0.00 0.00 0.00 93 1022.5
20260506144608 12 122 0.0 0.0 0.00 0.00 0.00 93 1022.5
20260506143100 12 122 0.0 0.0 0.00 0.00 0.00 93 1022.5
20260506141559 12 122 0.0 0.0 0.00 0.00 0.00 93 1022.2
20260506140100 12 122 0.0 0.0 0.00 0.00 0.00 93 1022.0
20260506140002 12 122 0.0 0.0 0.00 0.00 0.00 93 1022.0
20260506134604 12 122 0.0 0.0 0.00 0.00 0.00 93 1022.0
20260506133101 12 143 0.0 0.0 0.00 0.00 0.00 93 1021.9
20260506131600 12 143 0.0 0.0 0.00 0.00 0.00 93 1021.7
20260506130100 12 143 0.0 0.0 0.00 0.00 0.00 94 1021.6
20260506124559 12 143 0.0 0.0 0.00 0.00 0.00 94 1021.6
20260506123100 12 143 0.0 0.0 0.00 0.00 0.00 93 1021.4
20260506121601 12 143 0.0 0.0 0.00 0.00 0.00 94 1021.5
20260506120111 12 143 0.0 0.0 0.00 0.00 0.00 94 1021.3
20260506120001 12 143 0.0 0.0 0.00 0.00 0.00 94 1021.3
20260506114603 12 143 0.0 0.0 0.00 0.00 0.00 93 1021.3
20260506113101 12 143 0.0 0.0 0.00 0.00 0.00 93 1021.3
20260506111601 12 143 0.0 0.0 0.00 0.00 0.00 93 1021.3
20260506110059 12 143 0.0 0.0 0.00 0.00 0.00 93 1021.1
20260506110001 12 143 0.0 0.0 0.00 0.00 0.00 93 1021.1
20260506104601 12 143 0.0 0.0 0.00 0.00 0.00 93 1021.0
20260506103059 12 143 0.0 0.0 0.00 0.00 0.00 93 1021.1
20260506101601 12 143 0.0 0.0 0.00 0.00 0.00 93 1020.9
20260506100106 12 143 0.0 0.0 0.00 0.00 0.00 93 1020.8
20260506100002 12 143 0.0 0.0 0.00 0.00 0.00 93 1020.8
20260506094613 12 143 0.0 0.0 0.00 0.00 0.00 93 1020.8
20260506093059 12 143 0.0 0.0 0.00 0.00 0.00 93 1020.8
20260506091602 12 143 0.0 0.0 0.00 0.00 0.00 93 1020.8
20260506084601 12 143 0.0 0.0 0.00 0.00 0.00 93 1020.9
20260506083106 12 143 0.0 0.0 0.00 0.00 0.00 93 1020.9
20260506081558 12 143 0.0 0.0 0.00 0.00 0.00 92 1020.9
20260506073114 12 44 0.0 0.0 0.00 0.08 0.00 92 1020.5
20260506071601 12 44 0.0 0.0 0.00 0.08 0.00 91 1020.4
20260506061502 12 44 0.0 0.0 0.00 0.15 0.08 91 1020.3
20260506044501 13 44 0.0 0.0 0.00 0.81 0.08 88 1019.5
20260506043103 13 44 0.0 0.0 0.00 0.81 0.08 87 1019.4
20260506041501 13 44 0.0 1.6 0.00 0.81 0.08 86 1019.3
20260506040003 13 44 0.0 0.0 0.00 1.70 0.08 86 1019.1
20260506034604 13 44 0.0 1.6 0.00 1.70 0.08 85 1018.9
20260506033120 13 55 0.0 1.6 0.00 1.70 0.08 86 1018.7
20260506031600 13 61 0.0 1.6 0.00 1.70 0.08 85 1018.7
20260506030104 13 98 0.0 1.6 0.00 1.70 0.08 84 1018.6
20260506024615 13 98 0.0 3.2 0.00 2.24 0.08 83 1018.4
20260506023106 13 77 0.0 1.6 0.00 2.24 0.08 84 1018.0
20260506021602 14 43 0.0 1.6 0.00 2.24 0.08 82 1018.1
20260506020100 14 37 0.0 3.2 0.00 2.24 0.08 82 1017.7
20260506020002 14 37 0.0 3.2 0.00 2.24 0.08 82 1017.7
20260506014501 14 60 1.6 6.4 0.00 2.49 0.08 80 1017.7
20260506013002 14 40 0.0 6.4 0.00 2.49 0.08 80 1017.5
20260506011502 14 52 1.6 9.7 0.00 2.49 0.08 80 1017.7
20260506010120 14 42 1.6 4.8 0.00 2.49 0.08 80 1017.4
20260506004559 14 81 0.0 3.2 0.00 2.79 0.08 79 1017.6
20260506003101 14 77 0.0 1.6 0.00 2.79 0.08 80 1017.5
20260506001602 14 77 0.0 3.2 0.00 2.79 0.08 80 1017.5
20260506000002 14 216 0.0 1.6 0.00 2.79 0.08 83 1017.3
20260505234502 13 216 0.0 3.2 0.00 3.05 0.08 81 1017.4
20260505233101 13 202 0.0 1.6 0.00 3.05 0.08 83 1017.4
20260505231601 13 174 0.0 3.2 0.00 3.05 0.08 81 1017.4
20260505230004 14 314 0.0 3.2 0.00 3.05 0.08 81 1017.4
20260505224601 14 273 0.0 3.2 0.00 3.35 0.08 81 1017.5
20260505223001 14 249 0.0 4.8 0.00 3.35 0.08 81 1017.5
20260505221606 14 176 0.0 4.8 0.00 3.35 0.08 82 1017.6
20260505221502 14 172 1.6 4.8 0.00 3.35 0.08 81 1017.6
20260505220108 14 179 0.0 3.2 0.00 3.35 0.08 81 1017.8
20260505220001 14 177 0.0 3.2 0.00 3.35 0.08 81 1017.7
20260505214503 14 233 0.0 3.2 0.00 3.61 0.08 82 1017.9
20260505213100 14 172 0.0 3.2 0.00 3.61 0.08 81 1018.1
20260505213002 14 178 1.6 3.2 0.00 3.61 0.08 82 1018.2